Lamoni, IA

8:22 PM CST on January 24, 2017 (GMT -0600)
Lamoni Municipal

Weather History for KLWD - November, 2010

Change the Weather History Date:

Sunday, November 7, 2010

  Actual Average Record
Temperature  
Mean Temperature 54 °F 44 °F  
Max Temperature 70 °F 54 °F 75 °F (1966)
Min Temperature 37 °F 34 °F -1 °F (1991)
Degree Days  
Heating Degree Days 11 21  
Month to date heating degree days 138 138  
Since 1 July heating degree days 475 622  
Cooling Degree Days 0 0  
Month to date cooling degree days 0 0  
Year to date cooling degree days 1184 946  
Growing Degree Days 3 (Base 50)    
Moisture  
Dew Point 30 °F    
Average Humidity 41    
Maximum Humidity 59    
Minimum Humidity 23    
Precipitation  
Precipitation 0.00 in 0.08 in 1.13 in (2011)
Month to date precipitation 0.00 0.77  
Year to date precipitation 49.44  
Sea Level Pressure  
Sea Level Pressure 30.08 in    
Wind  
Wind Speed 14 mph (South)    
Max Wind Speed 21 mph    
Max Gust Speed 26 mph    
Visibility 10 miles    
Events      
T = Trace of Precipitation, MM = Missing Value Source: NWS Daily Summary

Daily Weather History Graph

Daily Weather History Graph

Search for Another Location

Airport or City:

Trip Planner

Search our weather history database for the weather conditions in past years. The results will help you decide how hot, cold, wet, or windy it might be!

Date:

Astronomy

Nov. 07, 2010 Rise Set
Actual Time 6:52 AM CST 5:05 PM CST
Civil Twilight 6:24 AM CST 5:34 PM CST
Nautical Twilight 5:51 AM CST 6:06 PM CST
Astronomical Twilight 5:19 AM CST 6:38 PM CST
Moon 8:40 AM CST (11/7) 6:03 PM CST (11/7)
Length of Visible Light 11h 10m
Length of Day
10h 12m
Waxing Crescent, 3% of the Moon is Illuminated
Nov 7
Waxing Crescent
Nov 13
First Quarter
Nov 21
Full
Nov 28
Last Quarter
Dec 5
New

Hourly Weather History & Observations

Time (CST) Temp. Windchill Dew Point Humidity Pressure Visibility Wind Dir Wind Speed Gust Speed Precip Events Conditions
12:53 AM 43.0 °F 36.8 °F 24.1 °F 47% 30.19 in 10.0 mi South 11.5 mph - N/A   Clear
1:53 AM 42.1 °F 35.2 °F 23.0 °F 47% 30.17 in 10.0 mi South 12.7 mph - N/A   Clear
1:53 AM 42.1 °F 34.9 °F 23.0 °F 47% 30.16 in 10.0 mi South 13.8 mph - N/A   Clear
2:53 AM 41.0 °F 33.9 °F 24.1 °F 51% 30.15 in 10.0 mi South 12.7 mph - N/A   Clear
3:53 AM 39.9 °F 32.9 °F 24.1 °F 53% 30.16 in 10.0 mi South 11.5 mph - N/A   Clear
4:53 AM 39.0 °F 31.8 °F 24.1 °F 55% 30.16 in 10.0 mi South 11.5 mph - N/A   Clear
5:53 AM 37.9 °F 30.5 °F 25.0 °F 60% 30.15 in 10.0 mi South 11.5 mph - N/A   Clear
6:53 AM 39.0 °F 31.0 °F 25.0 °F 57% 30.16 in 10.0 mi South 13.8 mph - N/A   Clear
7:53 AM 42.1 °F 35.2 °F 27.0 °F 55% 30.16 in 10.0 mi South 12.7 mph - N/A   Clear
8:53 AM 48.0 °F - 30.9 °F 52% 30.15 in 9.0 mi South 15.0 mph - N/A   Clear
9:53 AM 54.0 °F - 33.1 °F 45% 30.14 in 10.0 mi SSW 18.4 mph - N/A   Clear
10:53 AM 60.1 °F - 35.1 °F 39% 30.14 in 10.0 mi SSW 17.3 mph - N/A   Clear
11:53 AM 63.0 °F - 36.0 °F 37% 30.10 in 10.0 mi SSW 16.1 mph - N/A   Clear
12:53 PM 66.9 °F - 36.0 °F 32% 30.06 in 10.0 mi SSW 15.0 mph 23.0 mph N/A   Clear
1:53 PM 68.0 °F - 34.0 °F 28% 30.04 in 10.0 mi South 17.3 mph - N/A   Clear
2:53 PM 69.1 °F - 33.1 °F 26% 30.01 in 10.0 mi SSW 17.3 mph - N/A   Clear
3:53 PM 69.1 °F - 30.9 °F 24% 30.00 in 10.0 mi South 17.3 mph 23.0 mph N/A   Clear
4:53 PM 64.0 °F - 32.0 °F 30% 30.00 in 10.0 mi South 10.4 mph - N/A   Clear
5:53 PM 61.0 °F - 32.0 °F 34% 30.00 in 10.0 mi South 11.5 mph - N/A   Clear
6:53 PM 57.0 °F - 30.9 °F 37% 30.00 in 10.0 mi South 9.2 mph - N/A   Clear
7:53 PM 57.0 °F - 32.0 °F 39% 29.99 in 10.0 mi South 13.8 mph - N/A   Clear
8:53 PM 54.0 °F - 32.0 °F 43% 29.99 in 10.0 mi South 11.5 mph - N/A   Clear
9:53 PM 53.1 °F - 33.1 °F 47% 29.98 in 10.0 mi South 12.7 mph - N/A   Clear
10:53 PM 52.0 °F - 33.1 °F 49% 29.96 in 10.0 mi South 11.5 mph - N/A   Clear